This demonstration page uses our WeatherBlox Daily Observations layout. Learn more.

Left ArrowRight Arrow

53.62937, 11.41316

Hourly Observations for October 11, 2019

Temp ( °F °C ) Dew Point ( °F °C ) Humidity (%) Winds ( mph kmh ) Pressure ( in mb ) Visibility ( mi km ) Precip ( " mm )
6:50 am 06:50 Mostly Cloudy 52 11 48 9 88 88 SSW 12 19 29.77 1008 30 48 N/A
7:20 am 07:20 Cloudy with Light Rain 54 12 48 9 82 82 SSW 12 19 29.74 1007 6 9 N/A
7:50 am 07:50 Mostly Cloudy with Light Rain 52 11 50 10 94 94 SSW 13 20 29.74 1007 5 8 N/A
8:20 am 08:20 Mostly Cloudy 52 11 50 10 94 94 SW 14 22 29.74 1007 30 48 N/A
8:50 am 08:50 Mostly Cloudy 52 11 50 10 94 94 SW 14 22 29.74 1007 30 48 N/A
9:20 am 09:20 Mostly Cloudy 54 12 50 10 88 88 SW 14 22 29.74 1007 30 48 N/A
9:50 am 09:50 Mostly Cloudy 54 12 52 11 94 94 SW 16 26 29.77 1008 30 48 N/A
10:20 am 10:20 Mostly Cloudy 55 13 52 11 88 88 SW 14 22 29.77 1008 30 48 N/A
10:50 am 10:50 Mostly Cloudy 55 13 52 11 88 88 SW 15 24 29.77 1008 30 48 N/A
11:20 am 11:20 Mostly Cloudy 55 13 52 11 88 88 SW 15 24 29.77 1008 30 48 N/A
11:50 am 11:50 Mostly Cloudy 57 14 52 11 82 82 SW 16 26 29.77 1008 30 48 N/A
12:20 pm 12:20 Mostly Cloudy 57 14 52 11 82 82 SW 15 24 29.77 1008 30 48 N/A
12:50 pm 12:50 Mostly Cloudy 57 14 52 11 82 82 SW 15 24 29.77 1008 30 48 N/A
1:20 pm 13:20 Mostly Cloudy 57 14 54 12 88 88 SW 14 22 29.74 1007 30 48 N/A
1:50 pm 13:50 Mostly Cloudy 59 15 54 12 82 82 SW 15 24 29.74 1007 30 48 N/A
2:20 pm 14:20 Mostly Cloudy 59 15 54 12 82 82 SW 17 28 29.74 1007 30 48 N/A
2:50 pm 14:50 Mostly Cloudy with Drizzle 59 15 54 12 82 82 SW 15 24 29.74 1007 30 48 N/A
3:20 pm 15:20 Mostly Cloudy 59 15 54 12 82 82 SW 15 24 29.71 1006 30 48 N/A
3:50 pm 15:50 Mostly Cloudy with Light Rain 57 14 54 12 88 88 SW 17 28 29.71 1006 30 48 N/A
4:20 pm 16:20 Mostly Cloudy 57 14 54 12 88 88 SW 14 22 29.71 1006 30 48 N/A
4:50 pm 16:50 Mostly Cloudy 59 15 54 12 82 82 SW 16 26 29.71 1006 30 48 N/A
5:20 pm 17:20 Mostly Cloudy 59 15 52 11 77 77 SW 16 26 29.68 1005 30 48 N/A
5:50 pm 17:50 Mostly Cloudy 59 15 52 11 77 77 SW 17 28 29.68 1005 30 48 N/A
6:20 pm 18:20 Mostly Cloudy 59 15 52 11 77 77 SW 17 28 29.68 1005 30 48 N/A
6:50 pm 18:50 Mostly Cloudy 59 15 52 11 77 77 SW 17 28 29.68 1005 30 48 N/A
7:20 pm 19:20 Mostly Cloudy 59 15 52 11 77 77 SW 17 28 29.68 1005 30 48 N/A
7:50 pm 19:50 Mostly Cloudy 57 14 54 12 88 88 SW 14 22 29.68 1005 30 48 N/A
8:20 pm 20:20 Mostly Cloudy 59 15 52 11 77 77 SW 16 26 29.65 1004 30 48 N/A
8:50 pm 20:50 Mostly Cloudy 57 14 54 12 88 88 SW 16 26 29.65 1004 30 48 N/A

Powered by AerisWeather